AirNav   TITAN Aviation Fuels
 
 1515 users online  

N06 Laurel Airport
Laurel, Delaware, USA

GOING TO LAUREL?


FAA INFORMATION EFFECTIVE 15 JULY 2021

Location

FAA Identifier: N06
Lat/Long: 38-32-31.8640N 075-35-39.6660W
38-32.531067N 075-35.661100W
38.5421844,-75.5943517
(estimated)
Elevation: 30.1 ft. / 9 m (estimated)
Variation: 12W (2000)
From city: 1 mile SW of LAUREL, DE
Time zone: UTC -4 (UTC -5 during Standard Time)
Zip code: 19956

Airport Operations

Airport use: Open to the public
Activation date: 12/1946
Control tower: no
ARTCC: WASHINGTON CENTER
FSS: MILLVILLE FLIGHT SERVICE STATION
NOTAMs facility: MIV (NOTAM-D service available)
Attendance: 0800-DUSK
Wind indicator: yes
Segmented circle: no
Lights: ACTVT LIRL - CTAF.
Beacon: white-green (lighted land airport)
ACTVT ROTG BCN - CTAF.

Airport Communications

CTAF/UNICOM: 122.8
PATUXENT APPROACH: 127.95
POTOMAC APPROACH: 127.2 ;WHEN NHK APCH CLSD
PATUXENT DEPARTURE: 127.95
POTOMAC DEPARTURE: 127.2 ;WHEN NHK APCH CLSD
WX ASOS at SBY (13 nm S): 118.325 (410-341-0868)
WX ASOS at GED (14 nm NE): 118.375 (302-855-1052)
  • APCH/DEP SVC PRVDD BY POTOMAC TRACON ON 127.2/281.475 WHEN PATUXENT APCH CTL CLSD.

Nearby radio navigation aids

VOR radial/distance  VOR name  Freq  Var
SBYr354/12.5SALISBURY VORTAC111.2012W
ATRr237/24.1WATERLOO VOR/DME112.6009W
SWLr356/29.8SNOW HILL VORTAC112.4008W

Airport Services

Parking: hangars and tiedowns
Airframe service: MAJOR
Powerplant service: MAJOR
Bottled oxygen: NONE
Bulk oxygen: NONE

Runway Information

Runway 15/33

Dimensions: 3175 x 270 ft. / 968 x 82 m
Surface: turf, in good condition
Runway edge lights: low intensity
Runway edge markings: DSPLCD THLD MKD WITH 3 LARGE ORANGE CONES EACH SIDE.
RUNWAY 15  RUNWAY 33
Latitude: 38-32.730683N38-32.351717N
Longitude: 075-35.874700W075-35.415167W
Elevation: 28.9 ft.30.1 ft.
Traffic pattern: leftleft
Runway heading: 148 magnetic, 136 true328 magnetic, 316 true
Displaced threshold: no270 ft.
Runway end identifier lights: nono
Touchdown point: yes, no lightsyes, no lights
Obstructions: 61 ft. trees, 140 ft. from runway, 60 ft. right of centerline, 2:1 slope to clear53 ft. tree, 10 ft. from runway, 167 ft. right of centerline, 1:1 slope to clear
RWY 33 APCH SLP 6:1 TO DSPLCD THLD.

Airport Ownership and Management from official FAA records

Ownership: Privately-owned
Owner: DEST INC
106 STUART DRIVE
DOVER, DE 19901
Phone 302-697-6020
DEST INC.
Manager: JEFF CHORMAN
30475 EAST MILL RUN
MILTON, DE 19968
Phone 302-349-5055

Airport Operational Statistics

Aircraft based on the field: 7
Single engine airplanes: 7
    
Aircraft operations: avg 21/day *
81% local general aviation
19% transient general aviation
* for 12-month period ending 31 December 2018

Additional Remarks

FOR CD WHEN NHK APCH IS CLSD CTC POTOMAC APCH AT 866-640-4124.
ARPT NO LONGER HOSTS SKYDIVING OPS.

Instrument Procedures

NOTE: All procedures below are presented as PDF files. If you need a reader for these files, you should download the free Adobe Reader.

NOT FOR NAVIGATION. Please procure official charts for flight.
FAA instrument procedures published for use from 15 July 2021 at 0901Z to 12 August 2021 at 0900z.

 
IAPs - Instrument Approach Procedures
RNAV (GPS)-A   download (176KB)
NOTE: Special Take-Off Minimums/Departure Procedures apply   download (140KB)

Other nearby airports with instrument procedures:

KSBY - Salisbury-Ocean City Wicomico Regional Airport (13 nm S)
KGED - Delaware Coastal Airport (14 nm NE)
KCGE - Cambridge-Dorchester Regional Airport (20 nm W)
KOXB - Ocean City Municipal Airport (26 nm SE)
KESN - Easton Airport/Newnam Field (27 nm NW)
 
Loc | Ops | Rwys | IFR | FBO | Links
Com | Nav | Svcs | Stats | Notes
Area around N06 (Laurel Airport)
 
Road maps at: MapQuest Bing Google
 
Aerial photo
WARNING: Photo may not be current or correct
Aerial photo of N06 (Laurel Airport)
Photo taken 21-Jul-2006

Do you have a better or more recent aerial photo of Laurel Airport that you would like to share? If so, please send us your photo.

 
Sectional chart

 
Airport distance calculator
Flying to Laurel Airport? Find the distance to fly.

From to N06

Sunrise and sunset
Times for 04-Aug-2021
 Local
(UTC-4)
 Zulu
(UTC)
Morning civil twilight05:3809:38
Sunrise06:0810:08
Sunset20:0900:09
Evening civil twilight20:3800:38

Current date and time
Zulu (UTC)  04-Aug-2021 16:43:06
Local (UTC-4)  04-Aug-2021 12:43:06
 
METAR
KSBY 
13nm S 
041554Z 07012KT 10SM BKN040 OVC060 20/18 A3007 RMK AO2 SLP186 T02000183
KGED 
14nm NE 
041554Z AUTO 08009KT 10SM BKN046 OVC060 21/17 A3009 RMK AO2 RAB16E46 SLP189 P0000 T02060172 $
KCGE 
20nm W 
041615Z AUTO 05011KT 10SM FEW021 FEW060 23/17 A3010 RMK A01
KOXB 
26nm SE 
041605Z AUTO 04010G21KT 4SM RA BR BKN014 OVC022 20/19 A3008 RMK AO2 P0002 T02000189
TAF
KSBY 
13nm S 
041430Z 0415/0512 06009KT P6SM OVC080 TEMPO 0415/0418 5SM -RA BR OVC025 FM042000 03009KT P6SM VCSH BKN035 FM050300 02005KT P6SM BKN020
NOTAMs
Click for the latest NOTAMs
NOTAMs are issued by the DoD/FAA and will open in a separate window not controlled by AirNav.

 

 
 

Would you like to see your business listed on this page?

 If your business provides an interesting product or service to pilots, flight crews, aircraft, or users of the Laurel Airport, you should consider listing it here.  To start the listing process, click on the button below
 
Add a business
 

Other Pages about Laurel Airport

Update a link
 
Copyright © AirNav, LLC. All rights reserved. Privacy Policy  Contact